Regional Weather Roundup
Issued by NWS Charleston, SC

Current Version | Previous Version | Graphics & Text | Print | Product List | Glossary On
Versions: 1 2 3 4 5 6 7 8 9 10 11 12 13 14 15 16 17 18 19 20 21 22 23 24 25 26 27 28 29 30 31 32 33 34 35 36 37 38 39 40 41 42 43 44 45 46 47 48 49 50
141 ASUS42 KCHS 052313 RWRCHS REGIONAL WEATHER ROUNDUP NATIONAL WEATHER SERVICE CHARLESTON SC 700 PM EDT THU MAY 05 2016 NOTE: "FAIR" INDICATES FEW OR NO CLOUDS BELOW 12,000 FEET WITH NO SIGNIFICANT WEATHER AND/OR OBSTRUCTIONS TO VISIBILITY. NOT ALL STATIONS ARE QUALITY CONTROLLED. USE DATA WITH CAUTION... ESPECIALLY DEWPOINT OBSERVATIONS. SCZ027-030-031-034>040-042>050-060000- ...SOUTHEAST SOUTH CAROLINA... CITY SKY/WX TMP DP RH WIND PRES REMARKS N CHARLESTON MOSUNNY 67 41 38 NW16 29.66R WATERFRONT PRK N/A 68 45 43 NW12 29.63R MOUNT PLEASANT FAIR 66 43 42 NW13G21 29.65R JOHNS ISLAND FAIR 68 43 40 NW14 29.66R PINOPOLIS N/A 70 45 40 W20 29.56S MONCKS CORNER FAIR 63 32 31 W6 29.66R SUMMERVILLE FAIR 64 43 45 NW9G17 29.68R BEAUFORT MCAS PTSUNNY 68 39 34 NW10G21 29.68R BEAUFORT ARPT FAIR 70 36 28 W20G28 29.67R HILTON HEAD IS MOSUNNY 70 39 32 W9G20 29.69R WALTERBORO MOCLDY 64 39 39 NW16G26 29.70R ALLENDALE MOCLDY 63 41 45 W8G15 29.71R ...SOUTHERN MIDLANDS AND PEE DEE... CITY SKY/WX TMP DP RH WIND PRES REMARKS GEORGETOWN FAIR 59 46 63 N10G21 29.65R KINGSTREE FAIR 59 45 58 NW5 29.66R ORANGEBURG MOSUNNY 61 40 45 W9 29.68R BARNWELL MOCLDY 63 46 55 W15G23 29.72R AIKEN CLOUDY 59 41 51 W17G23 29.74R MANNING FAIR 63 37 39 W13G20 29.66R COLUMBIA MOSUNNY 65 39 38 W20G26 29.66R SUMTER MOSUNNY 61 45 55 W5 29.63S FLORENCE CLOUDY 58 49 72 SW6 29.64F MYRTLE BEACH PTSUNNY 63 43 48 NW14 29.65R N MYRTLE BEACH MOSUNNY 60 51 72 NW6 29.63R $$ GAZ063-065-086>088-099>101-113>116-118-119-134>141-150-060000- ...SOUTHEAST GEORGIA... CITY SKY/WX TMP DP RH WIND PRES REMARKS SAVANNAH ARPT MOSUNNY 68 35 29 NW13G21 29.70R HUNTER AAF SUNNY 69 37 31 NW16G24 29.68R FORT STEWART SUNNY 69 35 28 W15G24 29.69R STATESBORO PTSUNNY 70 42 36 NW18G25 29.71R SYLVANIA CLOUDY 67 43 42 N16G26 29.72R CLAXTON FAIR 69 42 37 W14G22 29.71S ...CSRA...CENTRAL AND FAR SOUTHEAST GEORGIA... CITY SKY/WX TMP DP RH WIND PRES REMARKS THOMSON PTSUNNY 58 49 72 W7 29.78F AUGUSTA-BUSH CLOUDY 58 41 53 W16G28 29.72R AUGUSTA-DANIEL CLOUDY 59 39 47 W12G23 29.73R SWAINSBORO LGT RAIN 54 46 76 N12G26 29.77R VIDALIA SUNNY 68 37 32 W12G21 29.73R EASTMAN FAIR 69 37 31 NW9G23 29.77R HAZLEHURST FAIR 70 37 29 W7 29.73S ALMA MOSUNNY 69 38 32 NW16 29.74R WAYCROSS MOSUNNY 69 40 33 NW12G18 29.74R JESUP FAIR 72 41 33 NW16G25 29.74R BAXLEY PTSUNNY 70 37 30 NW14G21 29.74R BRUNSWICK MOSUNNY 75 41 29 NW9G20 29.74R SAINT SIMONS MOSUNNY 70 36 28 NW13G25 29.72R $$ SCZ027-028-034-036>038-045-046-048>050-GAZ119-141-060000- ...LAKE AND SUPPLEMENTAL COASTAL OBSERVATIONS... STATION/POSITION TIME TEMP WIND PRES WAVE SWELL AIR SEA DIR/SP/G HT/PER HT/PER/DIR (UTC) (F) (DEG/KT/KT) (MB) (FT/S) (FT/S/D) WINYAH BAY 2145 62 330/ 9 1002.0 LAKE MURRAY 2200 63 290/ 7/ 11 1004.1R ACE BASIN NERRS NOT AVBL FORT PULASKI 2200 73 290/ 20/ 24 1004.9R SAPELO ISLAND 2200 71 300/ 18 1006.0R $$ ANZ835-935-AMZ111-154-330-350-352-354-370-450-454-472-060000- ...C-MAN AND BUOY OBSERVATIONS... STATION/POSITION TIME TEMP WIND PRES WAVE SWELL AIR SEA DIR/SP/G HT/PER HT/PER/DIR (UTC) (F) (DEG/KT/KT) (MB) (FT/S) (FT/S/D) BUOY 41004 2250 69 74 290/ 21/ 25 1002.6R 5/ 6 BUOY 41008 NOT AVBL FOLLY BEACH CMAN 2300 66 300/ 11/ 17 1004.5R CAPERS NEARSHORE 2208 67 70 320/ 17/ 25 1002.7R FRIPP NEARSHORE 2208 68 69 320/ 21/ 29 1003.0R STATION/POSITION TIME TEMP WIND PRES WAVE SWELL AIR SEA DIR/SP/G HT/PER HT/PER/DIR (UTC) (F) (DEG/KT/KT) (MB) (FT/S) (FT/S/D) 5E ST. MARYS GA 2221 71 N/A 3/ 4 FRYING PAN BUOY 2200 66 72 320/ 17/ 23 1001.4R BUOY 41025 2250 57 76 360/ 19/ 23 999.5R 5/ 7 2/ 40/13 CAPE LOOKOUT NC 2200 56 330/ 11/ 14 1000.0R BUOY 41002 2250 72 74 260/ 25/ 31 1001.5R 9/ 8 2/120/19 BUOY 41010 2220 73 78 280/ 16/ 19 1006.3S ST AUGUSTINE FL 2300 74 71 300/ 10/ 12 1007.0R $$

USA.gov is the U.S. government's official web portal to all federal, state and local government web resources and services.